Content
SEND FEEDBACK

Daily
Averages
Monthly
Summary
United States of America

DAILEY, WEST VIRGINIA


Home > North America > United States > West Virginia
Elevation: 199 feet     Latitude: 38 49N     Longitude: 079 53W

WEATHER
 
SELECT A DAY
Number of Records: 249,276;   Date Range: 1/1/95 - 7/7/14
 
SHARE

PRINT THIS DATA

[ ← Previous Day ]
WEATHER ALMANAC - JANUARY 31, 2013
[ Next Day → ]
[ °C ]   °F
Weather ElementAverageHighLow
Temperature27.4 °F44.6 °F (12:23 am)21.2 °F (7:59 pm)
Dewpoint19.9 °F39.2 °F (12:23 am)12.9 °F (4:51 pm)
Humidity73.7 %85 % (2:51 am)62 % (4:51 pm)
Barometer29.70 in29.94 in (6:51 pm)29.33 in (12:23 am)
Wind Speed14.9 mph26.5 mph (1:40 am)
Wind Gust47.2 mph (3:07 am)
Weather ElementAverage
Visibility3.4 mi
Wind DirectionWSW (264 °)

Weather ElementTotal
Precipitation0.37 in
Heating Degree Days32.1 (Base 65)
Averaged from 83 records on January 31, 2013
WEATHER CONDITIONS BREAKOUT
WIND DIRECTION BREAKOUT
WEATHER BY HOUR - JANUARY 31, 2013
[ °C ]   °F
Local TimeTemperatureDewpointHumidityBarometerVisibilityWind DirectionWind SpeedGust SpeedPrecipitationEventsConditions
12:23 AM44.6 °F39.2 °F81 %29.33 in8.0 miWest (270°)20.7 mph31.1 mph0.04 inRainLight Rain
12:51 AM44.1 °F37.9 °F79 %29.33 in6.0 miWSW (250°)24.2 mph34.5 mph0.08 inRainRain
1:40 AM39.2 °F33.8 °F81 %29.37 in3.0 miWest (280°)26.5 mph44.9 mph0.03 inRainRain
1:51 AM37.9 °F33.1 °F83 %29.42 in6.0 miWest (280°)20.7 mph43.7 mph0.05 inRainLight Rain
2:45 AM35.6 °F30.2 °F81 %29.44 in2.5 miWest (280°)17.3 mph26.5 mph0.04 inSnowLight Snow
2:51 AM35.1 °F30.9 °F85 %29.47 in3.0 miWNW (290°)16.1 mph24.2 mph0.05 inSnowLight Snow
3:07 AM35.6 °F28.4 °F75 %29.45 in1.8 miWest (270°)21.9 mph47.2 mph0.00 inSnowLight Snow
3:15 AM35.6 °F28.4 °F75 %29.46 in1.8 miWest (270°)21.9 mph41.4 mph0.00 inSnowLight Snow
3:22 AM35.6 °F28.4 °F75 %29.46 in3.0 miWest (270°)23.0 mph34.5 mph0.00 inSnowLight Snow
3:51 AM34.0 °F28.9 °F82 %29.49 in4.0 miWest (280°)9.2 mph21.9 mph0.01 inSnowLight Snow
3:57 AM33.8 °F28.4 °F81 %29.48 in1.8 miWest (280°)15.0 mph26.5 mph0.01 inSnowLight Snow
4:19 AM32.0 °F24.8 °F75 %29.49 in2.0 miWest (270°)21.9 mph42.6 mph0.01 inSnowLight Snow
4:29 AM32.0 °F24.8 °F75 %29.50 in4.0 miWest (260°)23.0 mph32.2 mph0.01 inSnowLight Snow
4:51 AM32.0 °F24.1 °F73 %29.55 in10.0 miWest (260°)19.6 mph33.4 mph0.01 inOvercast
5:01 AM32.0 °F24.8 °F75 %29.53 in10.0 miWest (270°)21.9 mph38.0 mph0.00 inOvercast
5:45 AM30.2 °F23.0 °F75 %29.56 in2.0 miWest (260°)12.7 mph33.4 mph0.00 inSnowLight Snow
5:51 AM28.9 °F23.0 °F78 %29.61 in1.0 miWest (260°)19.6 mph29.9 mph0.00 inSnowLight Snow
5:57 AM28.4 °F23.0 °F80 %29.57 in0.8 miWest (280°)15.0 mph29.9 mph0.00 inSnowLight Snow
6:03 AM28.4 °F23.0 °F80 %29.57 in1.2 miWest (260°)18.4 mph29.9 mph0.00 inSnowLight Snow
6:08 AM28.4 °F21.2 °F74 %29.58 in3.0 miWest (270°)19.6 mph29.9 mph0.00 inSnowLight Snow
6:39 AM28.4 °F19.4 °F69 %29.60 in10.0 miWest (270°)12.7 mph25.3 mph0.00 inOvercast
6:51 AM28.9 °F19.0 °F67 %29.65 in10.0 miWest (280°)10.4 mph27.6 mph0.00 inOvercast
7:29 AM28.4 °F19.4 °F69 %29.62 in8.0 miWSW (250°)20.7 mph33.4 mphSnowLight Snow
7:51 AM28.0 °F21.0 °F75 %29.66 in4.0 miWest (270°)13.8 mph24.2 mph0.00 inSnowLight Snow
7:54 AM28.4 °F21.2 °F74 %29.62 in1.2 miWest (260°)19.6 mph28.8 mph0.00 inSnowLight Snow
8:02 AM26.6 °F21.2 °F80 %29.63 in0.5 miWest (260°)21.9 mph28.8 mph0.00 inSnowSnow
8:08 AM28.4 °F19.4 °F69 %29.64 in2.0 miWest (270°)24.2 mph31.1 mph0.00 inSnowLight Snow
8:16 AM28.4 °F17.6 °F64 %29.64 in10.0 miWest (260°)18.4 mph32.2 mph0.00 inOvercast
8:27 AM28.4 °F17.6 °F64 %29.64 in10.0 miWest (260°)19.6 mph32.2 mph0.00 inOvercast
8:44 AM26.6 °F19.4 °F74 %29.65 in1.8 miWNW (290°)19.6 mph31.1 mph0.00 inSnowLight Snow
8:47 AM26.6 °F19.4 °F74 %29.66 in0.8 miWNW (290°)17.3 mph31.1 mph0.00 inSnowLight Snow
8:51 AM26.1 °F19.9 °F78 %29.70 in0.5 miWNW (290°)17.3 mph31.1 mph0.00 inSnowSnow
9:03 AM26.6 °F19.4 °F74 %29.67 in1.8 miWNW (290°)11.5 mph28.8 mph0.00 inSnowLight Snow
9:43 AM26.6 °F19.4 °F74 %29.68 in0.8 miWest (270°)9.2 mph23.0 mph0.00 inSnowLight Snow
9:51 AM26.1 °F19.9 °F78 %29.74 in0.5 miWSW (250°)12.7 mph17.3 mph0.00 inSnowSnow
10:36 AM24.8 °F19.4 °F80 %29.72 in0.5 miWest (270°)12.7 mph21.9 mph0.01 inSnowSnow
10:51 AM25.0 °F19.9 °F81 %29.79 in0.2 miWest (270°)11.5 mph28.8 mph0.02 inSnowHeavy Snow
11:03 AM24.8 °F17.6 °F74 %29.74 in0.8 miWest (270°)17.3 mph40.3 mph0.00 inSnowLight Snow
11:05 AM24.8 °F17.6 °F74 %29.74 in1.2 miWest (260°)18.4 mph34.5 mph0.00 inSnowLight Snow
11:08 AM24.8 °F15.8 °F69 %29.74 in3.0 miWest (270°)17.3 mph29.9 mph0.00 inSnowLight Snow
11:20 AM24.8 °F17.6 °F74 %29.74 in2.5 miWNW (290°)11.5 mph24.2 mph0.00 inSnowLight Snow
11:27 AM24.8 °F17.6 °F74 %29.75 in4.0 miWest (270°)15.0 mph29.9 mph0.00 inSnowLight Snow
11:44 AM24.8 °F17.6 °F74 %29.74 in2.5 miWest (260°)9.2 mph21.9 mph0.00 inSnowLight Snow
11:51 AM25.0 °F17.1 °F72 %29.80 in1.2 miWest (260°)15.0 mph20.7 mph0.00 inSnowLight Snow
11:56 AM24.8 °F17.6 °F74 %29.75 in0.5 miWest (260°)10.4 mph18.4 mph0.00 inSnowSnow
12:09 PM24.8 °F17.6 °F74 %29.74 in1.0 miWest (260°)13.8 mph28.8 mph0.00 inSnowLight Snow
12:32 PM26.6 °F15.8 °F64 %29.74 in3.0 miWest (260°)19.6 mph33.4 mph0.00 inOvercast
12:51 PM26.1 °F15.1 °F63 %29.80 in2.0 miWest (270°)17.3 mph28.8 mph0.00 inSnowLight Snow
1:02 PM24.8 °F15.8 °F69 %29.74 in1.2 miWest (260°)15.0 mph29.9 mph0.00 inSnowLight Snow
1:11 PM24.8 °F17.6 °F74 %29.74 in1.0 miWest (270°)8.1 mph28.8 mph0.00 inSnowLight Snow
1:47 PM24.8 °F17.6 °F74 %29.74 in3.0 miWest (260°)10.4 mph23.0 mph0.00 inSnowLight Snow
1:48 PM25.0 °F17.1 °F72 %29.81 in3.0 miWest (260°)13.8 mph23.0 mph0.00 inSnowLight Snow
1:59 PM26.6 °F15.8 °F64 %29.74 in4.0 miWest (270°)10.4 mph21.9 mph0.00 inSnowLight Snow
2:35 PM26.6 °F15.8 °F64 %29.75 in1.5 miWest (260°)19.6 mph33.4 mph0.00 inSnowLight Snow
2:38 PM26.6 °F15.8 °F64 %29.75 in0.8 miWSW (250°)20.7 mph33.4 mphSnowLight Snow
2:49 PM24.8 °F19.4 °F80 %29.77 in0.2 miWNW (290°)23.0 mph34.5 mph0.00 inSnowHeavy Snow
2:50 PM24.1 °F19.0 °F81 %29.84 in0.2 miWNW (290°)19.6 mph34.5 mph0.00 inSnowHeavy Snow
3:02 PM24.8 °F17.6 °F74 %29.78 in0.8 miWest (280°)24.2 mph36.8 mph0.00 inSnowLight Snow
3:11 PM24.8 °F15.8 °F69 %29.78 in2.0 miWest (260°)16.1 mph31.1 mph0.00 inSnowLight Snow
3:14 PM24.8 °F15.8 °F69 %29.78 in3.0 miWSW (250°)21.9 mph31.1 mph0.00 inSnowLight Snow
3:51 PM25.0 °F14.0 °F63 %29.88 in2.5 miWNW (300°)18.4 mph35.7 mph0.00 inSnowLight Snow
4:07 PM24.8 °F14.0 °F64 %29.81 in6.0 miWNW (290°)12.7 mph27.6 mph0.00 inSnowLight Snow
4:51 PM24.1 °F12.9 °F62 %29.90 in9.0 miWest (260°)8.1 mph20.7 mph0.00 inSnowLight Snow
5:51 PM24.1 °F12.9 °F62 %29.91 in9.0 miWSW (250°)8.1 mph18.4 mph0.00 inSnowLight Snow
6:04 PM23.0 °F15.8 °F74 %29.83 in2.5 miWest (280°)8.1 mph0.00 inSnowLight Snow
6:24 PM23.0 °F15.8 °F74 %29.84 in1.5 miWest (270°)9.2 mph0.00 inSnowLight Snow
6:32 PM23.0 °F15.8 °F74 %29.84 in3.0 miSW (220°)12.7 mph16.1 mph0.00 inSnowLight Snow
6:51 PM23.0 °F15.1 °F72 %29.94 in9.0 miWSW (250°)10.4 mph0.00 inMostly Cloudy
7:01 PM23.0 °F15.8 °F74 %29.85 in10.0 miWest (260°)6.9 mphMostly Cloudy
7:38 PM23.0 °F15.8 °F74 %29.84 in2.5 miWest (270°)10.4 mph0.00 inSnowLight Snow
7:47 PM23.0 °F15.8 °F74 %29.84 in1.2 miWest (260°)9.2 mph0.00 inSnowLight Snow
7:51 PM23.0 °F17.1 °F78 %29.93 in1.2 miWSW (250°)5.8 mph0.00 inSnowLight Snow
7:59 PM21.2 °F15.8 °F80 %29.85 in3.0 miWest (260°)5.8 mph0.00 inSnowLight Snow
8:15 PM24.8 °F15.8 °F69 %29.85 in10.0 miWest (270°)6.9 mph17.3 mph0.00 inOvercast
8:51 PM23.0 °F15.1 °F72 %29.93 in9.0 miWSW (240°)13.8 mph20.7 mph0.00 inMostly Cloudy
9:51 PM24.1 °F16.0 °F71 %29.93 in3.0 miWSW (240°)9.2 mph19.6 mph0.00 inSnowLight Snow
9:56 PM24.8 °F17.6 °F74 %29.84 in2.5 miWest (270°)10.4 mph19.6 mph0.00 inSnowLight Snow
10:15 PM24.8 °F17.6 °F74 %29.84 in1.8 miSSW (210°)5.8 mph0.00 inSnowLight Snow
10:39 PM24.8 °F19.4 °F80 %29.84 in2.0 miSSW (210°)5.8 mph0.00 inSnowLight Snow
10:51 PM24.1 °F18.0 °F77 %29.92 in2.0 miSSW (200°)6.9 mph0.00 inSnowLight Snow
11:11 PM24.8 °F17.6 °F74 %29.82 in4.0 miSW (220°)6.9 mph0.00 inSnowLight Snow
11:28 PM24.8 °F17.6 °F74 %29.81 in2.5 miSW (220°)4.6 mph20.7 mph0.00 inSnowLight Snow
11:51 PM25.0 °F19.0 °F78 %29.88 in1.5 miWest (270°)10.4 mph19.6 mph0.00 inSnowLight Snow
Hourly data recorded from KEKN, located miles away from Dailey, West Virginia







STORIES FROM OUR PARTNERS